Year,Month,Day,Hour,Minute,Value (Times are PST for windspeed in km/hr)
2012,01,25,00,00,24.60
2012,01,25,00,01,28.00
2012,01,25,00,02,25.50
2012,01,25,00,03,22.90
2012,01,25,00,04,26.30
2012,01,25,00,05,26.20
2012,01,25,00,06,20.40
2012,01,25,00,07,25.80
2012,01,25,00,08,19.40
2012,01,25,00,09,23.90
2012,01,25,00,10,26.60
2012,01,25,00,11,24.50
2012,01,25,00,12,36.80
2012,01,25,00,13,29.00
2012,01,25,00,14,30.50
2012,01,25,00,15,26.80
2012,01,25,00,16,24.10
2012,01,25,00,17,26.90
2012,01,25,00,18,27.80
2012,01,25,00,19,25.30
2012,01,25,00,20,35.70
2012,01,25,00,21,28.50
2012,01,25,00,22,25.20
2012,01,25,00,23,30.20
2012,01,25,00,24,27.10
2012,01,25,00,25,31.50
2012,01,25,00,26,25.10
2012,01,25,00,27,26.60
2012,01,25,00,28,33.40
2012,01,25,00,29,23.40
2012,01,25,00,30,20.90
2012,01,25,00,31,26.50
2012,01,25,00,32,31.60
2012,01,25,00,33,33.00
2012,01,25,00,34,28.70
2012,01,25,00,35,28.70
2012,01,25,00,36,23.60
2012,01,25,00,37,19.60
2012,01,25,00,38,32.90
2012,01,25,00,39,34.80
2012,01,25,00,40,35.90
2012,01,25,00,41,38.70
2012,01,25,00,42,28.30
2012,01,25,00,43,27.40
2012,01,25,00,44,28.50
2012,01,25,00,45,30.80
2012,01,25,00,46,34.20
2012,01,25,00,47,29.70
2012,01,25,00,48,26.10
2012,01,25,00,49,28.20
2012,01,25,00,50,26.70
2012,01,25,00,51,23.80
2012,01,25,00,52,23.30
2012,01,25,00,53,28.60
2012,01,25,00,54,25.70
2012,01,25,00,55,25.70
2012,01,25,00,56,30.10
2012,01,25,00,57,33.20
2012,01,25,00,58,29.90
2012,01,25,00,59,24.50
2012,01,25,01,00,27.30
2012,01,25,01,01,28.90
2012,01,25,01,02,24.00
2012,01,25,01,03,28.40
2012,01,25,01,04,30.10
2012,01,25,01,05,28.00
2012,01,25,01,06,30.20
2012,01,25,01,07,20.80
2012,01,25,01,08,25.10
2012,01,25,01,09,23.20
2012,01,25,01,10,33.20
2012,01,25,01,11,34.70
2012,01,25,01,12,27.10
2012,01,25,01,13,27.00
2012,01,25,01,14,32.10
2012,01,25,01,15,23.60
2012,01,25,01,16,27.70
2012,01,25,01,17,32.70
2012,01,25,01,18,35.60
2012,01,25,01,19,21.70
2012,01,25,01,20,21.00
2012,01,25,01,21,17.50
2012,01,25,01,22,27.30
2012,01,25,01,23,24.10
2012,01,25,01,24,27.30
2012,01,25,01,25,25.30
2012,01,25,01,26,27.20
2012,01,25,01,27,20.40
2012,01,25,01,28,24.40
2012,01,25,01,29,23.50
2012,01,25,01,30,20.30
2012,01,25,01,31,23.40
2012,01,25,01,32,24.90
2012,01,25,01,33,32.20
2012,01,25,01,34,30.40
2012,01,25,01,35,35.80
2012,01,25,01,36,27.20
2012,01,25,01,37,26.90
2012,01,25,01,38,21.00
2012,01,25,01,39,25.70
2012,01,25,01,40,28.00
2012,01,25,01,41,42.90
2012,01,25,01,42,37.40
2012,01,25,01,43,29.60
2012,01,25,01,44,27.50
2012,01,25,01,45,33.90
2012,01,25,01,46,30.60
2012,01,25,01,47,27.90
2012,01,25,01,48,27.40
2012,01,25,01,49,30.80
2012,01,25,01,50,27.70
2012,01,25,01,51,29.80
2012,01,25,01,52,26.10
2012,01,25,01,53,21.10
2012,01,25,01,54,30.40
2012,01,25,01,55,28.40
2012,01,25,01,56,34.10
2012,01,25,01,57,26.20
2012,01,25,01,58,26.30
2012,01,25,01,59,29.90
2012,01,25,02,00,22.50
2012,01,25,02,01,31.40
2012,01,25,02,02,36.20
2012,01,25,02,03,36.70
2012,01,25,02,04,39.50
2012,01,25,02,05,28.40
2012,01,25,02,06,21.50
2012,01,25,02,07,27.50
2012,01,25,02,08,34.50
2012,01,25,02,09,31.90
2012,01,25,02,10,28.70
2012,01,25,02,11,28.20
2012,01,25,02,12,26.00
2012,01,25,02,13,21.20
2012,01,25,02,14,22.90
2012,01,25,02,15,29.00
2012,01,25,02,16,27.00
2012,01,25,02,17,32.20
2012,01,25,02,18,33.80
2012,01,25,02,19,30.50
2012,01,25,02,20,25.50
2012,01,25,02,21,24.00
2012,01,25,02,22,32.20
2012,01,25,02,23,27.20
2012,01,25,02,24,29.10
2012,01,25,02,25,34.60
2012,01,25,02,26,22.90
2012,01,25,02,27,27.90
2012,01,25,02,28,35.10
2012,01,25,02,29,26.50
2012,01,25,02,30,26.50
2012,01,25,02,31,39.10
2012,01,25,02,32,24.10
2012,01,25,02,33,30.10
2012,01,25,02,34,20.80
2012,01,25,02,35,26.20
2012,01,25,02,36,21.60
2012,01,25,02,37,19.70
2012,01,25,02,38,18.90
2012,01,25,02,39,29.70
2012,01,25,02,40,27.10
2012,01,25,02,41,30.60
2012,01,25,02,42,26.00
2012,01,25,02,43,30.20
2012,01,25,02,44,31.60
2012,01,25,02,45,22.00
2012,01,25,02,46,21.20
2012,01,25,02,47,24.00
2012,01,25,02,48,24.20
2012,01,25,02,49,27.70
2012,01,25,02,50,25.80
2012,01,25,02,51,21.90
2012,01,25,02,52,26.40
2012,01,25,02,53,29.90
2012,01,25,02,54,31.60
2012,01,25,02,55,30.00
2012,01,25,02,56,19.20
2012,01,25,02,57,26.50
2012,01,25,02,58,24.00
2012,01,25,02,59,31.00
2012,01,25,03,00,26.30
2012,01,25,03,01,24.60
2012,01,25,03,02,22.10
2012,01,25,03,06,20.80
2012,01,25,03,07,21.70
2012,01,25,03,08,23.00
2012,01,25,03,09,23.90
2012,01,25,03,10,23.70
2012,01,25,03,11,20.40
2012,01,25,03,12,21.50
2012,01,25,03,13,20.20
2012,01,25,03,14,16.30
2012,01,25,03,15,22.30
2012,01,25,03,16,20.60
2012,01,25,03,17,21.10
2012,01,25,03,18,24.90
2012,01,25,03,19,21.20
2012,01,25,03,20,20.20
2012,01,25,03,21,23.80
2012,01,25,03,22,23.30
2012,01,25,03,23,19.10
2012,01,25,03,24,24.70
2012,01,25,03,25,23.50
2012,01,25,03,26,17.10
2012,01,25,03,27,17.40
2012,01,25,03,28,22.10
2012,01,25,03,29,19.20
2012,01,25,03,30,21.70
2012,01,25,03,31,25.60
2012,01,25,03,32,21.20
2012,01,25,03,33,19.90
2012,01,25,03,34,17.80
2012,01,25,03,35,19.00
2012,01,25,03,36,18.40
2012,01,25,03,37,24.10
2012,01,25,03,38,16.80
2012,01,25,03,39,24.20
2012,01,25,03,40,19.50
2012,01,25,03,41,16.90
2012,01,25,03,42,14.30
2012,01,25,03,43,8.40
2012,01,25,03,44,14.50
2012,01,25,03,45,13.30
2012,01,25,03,46,13.60
2012,01,25,03,47,9.60
2012,01,25,03,48,7.50
2012,01,25,03,49,8.90
2012,01,25,03,50,11.90
2012,01,25,03,51,12.70
2012,01,25,03,52,10.40
2012,01,25,03,53,13.60
2012,01,25,03,54,17.60
2012,01,25,03,55,12.40
2012,01,25,03,56,10.60
2012,01,25,03,57,7.70
2012,01,25,03,58,4.60
2012,01,25,03,59,4.70
2012,01,25,04,00,6.50
2012,01,25,04,01,11.30
2012,01,25,04,02,11.90
2012,01,25,04,03,5.10
2012,01,25,04,04,6.20
2012,01,25,04,05,9.50
2012,01,25,04,06,6.00
2012,01,25,04,07,8.20
2012,01,25,04,08,7.70
2012,01,25,04,09,6.90
2012,01,25,04,10,7.90
2012,01,25,04,11,10.60
2012,01,25,04,12,12.10
2012,01,25,04,13,7.10
2012,01,25,04,14,4.80
2012,01,25,04,15,3.30
2012,01,25,04,16,2.30
2012,01,25,04,17,1.60
2012,01,25,04,18,0.70
2012,01,25,04,19,3.20
2012,01,25,04,20,2.60
2012,01,25,04,21,0.50
2012,01,25,04,22,0.30
2012,01,25,04,23,1.10
2012,01,25,04,24,4.30
2012,01,25,04,25,0.20
2012,01,25,04,26,3.00
2012,01,25,04,27,4.70
2012,01,25,04,28,7.40
2012,01,25,04,29,6.00
2012,01,25,04,30,8.60
2012,01,25,04,31,9.50
2012,01,25,04,32,8.30
2012,01,25,04,33,11.50
2012,01,25,04,34,10.90
2012,01,25,04,35,7.20
2012,01,25,04,36,14.10
2012,01,25,04,37,10.00
2012,01,25,04,38,8.00
2012,01,25,04,39,13.40
2012,01,25,04,40,10.90
2012,01,25,04,41,12.50
2012,01,25,04,42,14.10
2012,01,25,04,43,9.00
2012,01,25,04,44,12.70
2012,01,25,04,45,9.30
2012,01,25,04,46,8.60
2012,01,25,04,47,14.00
2012,01,25,04,48,10.60
2012,01,25,04,49,6.90
2012,01,25,04,50,8.10
2012,01,25,04,51,7.60
2012,01,25,04,52,6.40
2012,01,25,04,53,5.30
2012,01,25,04,54,6.00
2012,01,25,04,55,9.40
2012,01,25,04,56,7.30
2012,01,25,04,57,7.10
2012,01,25,04,58,8.10
2012,01,25,04,59,10.50
2012,01,25,05,00,11.30
2012,01,25,05,01,9.70
2012,01,25,05,02,7.80
2012,01,25,05,03,6.50
2012,01,25,05,04,5.60
2012,01,25,05,05,4.70
2012,01,25,05,06,7.40
2012,01,25,05,07,8.10
2012,01,25,05,08,9.10
2012,01,25,05,09,7.90
2012,01,25,05,10,10.10
2012,01,25,05,11,14.10
2012,01,25,05,12,9.80
2012,01,25,05,13,9.10
2012,01,25,05,14,8.00
2012,01,25,05,15,11.90
2012,01,25,05,16,17.20
2012,01,25,05,17,24.40
2012,01,25,05,18,26.30
2012,01,25,05,19,28.30
2012,01,25,05,20,27.70
2012,01,25,05,21,24.10
2012,01,25,05,22,21.70
2012,01,25,05,23,27.40
2012,01,25,05,24,21.20
2012,01,25,05,25,18.70
2012,01,25,05,26,25.20
2012,01,25,05,27,18.80
2012,01,25,05,28,15.60
2012,01,25,05,29,13.80
2012,01,25,05,30,9.40
2012,01,25,05,31,16.80
2012,01,25,05,32,13.90
2012,01,25,05,33,17.10
2012,01,25,05,34,18.50
2012,01,25,05,35,9.80
2012,01,25,05,36,10.60
2012,01,25,05,37,13.00
2012,01,25,05,38,10.00
2012,01,25,05,39,10.60
2012,01,25,05,40,13.00
2012,01,25,05,41,10.30
2012,01,25,05,42,14.40
2012,01,25,05,43,15.80
2012,01,25,05,44,13.50
2012,01,25,05,45,11.50
2012,01,25,05,46,12.60
2012,01,25,05,47,16.70
2012,01,25,05,48,11.90
2012,01,25,05,49,13.50
2012,01,25,05,50,11.50
2012,01,25,05,51,9.30
2012,01,25,05,52,10.20
2012,01,25,05,53,14.00
2012,01,25,05,54,16.60
2012,01,25,05,55,14.60
2012,01,25,05,56,14.20
2012,01,25,05,57,13.10
2012,01,25,05,58,12.10
2012,01,25,05,59,12.50
2012,01,25,06,00,7.50
2012,01,25,06,01,6.80
2012,01,25,06,02,3.90
2012,01,25,06,03,5.40
2012,01,25,06,04,3.70
2012,01,25,06,05,2.80
2012,01,25,06,06,2.60
2012,01,25,06,07,5.90
2012,01,25,06,08,7.40
2012,01,25,06,09,6.80
2012,01,25,06,10,8.20
2012,01,25,06,11,10.70
2012,01,25,06,12,5.80
2012,01,25,06,13,9.50
2012,01,25,06,14,7.70
2012,01,25,06,15,7.00
2012,01,25,06,16,5.30
2012,01,25,06,17,8.30
2012,01,25,06,18,5.60
2012,01,25,06,19,6.60
2012,01,25,06,20,6.40
2012,01,25,06,21,8.20
2012,01,25,06,22,6.30
2012,01,25,06,23,6.20
2012,01,25,06,24,7.90
2012,01,25,06,25,5.70
2012,01,25,06,26,6.20
2012,01,25,06,27,4.90
2012,01,25,06,28,3.80
2012,01,25,06,29,1.40
2012,01,25,06,30,0.70
2012,01,25,06,31,1.70
2012,01,25,06,32,1.30
2012,01,25,06,33,4.00
2012,01,25,06,34,3.30
2012,01,25,06,35,1.20
2012,01,25,06,36,3.60
2012,01,25,06,37,15.80
2012,01,25,06,38,6.10
2012,01,25,06,39,14.30
2012,01,25,06,40,9.10
2012,01,25,06,41,9.40
2012,01,25,06,42,6.50
2012,01,25,06,43,5.00
2012,01,25,06,44,6.80
2012,01,25,06,45,6.40
2012,01,25,06,46,6.80
2012,01,25,06,47,4.70
2012,01,25,06,48,5.30
2012,01,25,06,49,3.10
2012,01,25,06,50,3.50
2012,01,25,06,51,1.00
2012,01,25,06,52,0.10
2012,01,25,06,53,0.10
2012,01,25,06,54,0.00
2012,01,25,06,55,0.00
2012,01,25,06,56,0.00
2012,01,25,06,57,0.00
2012,01,25,06,58,0.00
2012,01,25,06,59,0.00
2012,01,25,07,00,0.00
2012,01,25,07,01,0.00
2012,01,25,07,02,0.00
2012,01,25,07,03,0.00
2012,01,25,07,04,0.00
2012,01,25,07,05,0.00
2012,01,25,07,06,0.00
2012,01,25,07,07,0.00
2012,01,25,07,08,0.00
2012,01,25,07,09,0.00
2012,01,25,07,10,0.00
2012,01,25,07,11,0.00
2012,01,25,07,12,0.00
2012,01,25,07,13,0.00
2012,01,25,07,14,0.00
2012,01,25,07,15,0.00
2012,01,25,07,16,0.00
2012,01,25,07,17,0.00
2012,01,25,07,18,0.00
2012,01,25,07,19,0.00
2012,01,25,07,20,0.00
2012,01,25,07,21,0.00
2012,01,25,07,22,0.00
2012,01,25,07,23,0.00
2012,01,25,07,24,0.00
2012,01,25,07,25,0.00
2012,01,25,07,26,0.00
2012,01,25,07,27,2.50
2012,01,25,07,28,2.00
2012,01,25,07,29,0.00
2012,01,25,07,30,0.00
2012,01,25,07,31,0.10
2012,01,25,07,32,0.00
2012,01,25,07,33,1.70
2012,01,25,07,34,0.00
2012,01,25,07,35,0.00
2012,01,25,07,36,0.00
2012,01,25,07,37,2.70
2012,01,25,07,38,1.30
2012,01,25,07,39,0.00
2012,01,25,07,40,0.10
2012,01,25,07,41,0.20
2012,01,25,07,42,0.00
2012,01,25,07,43,0.00
2012,01,25,07,44,0.60
2012,01,25,07,45,0.00
2012,01,25,07,46,0.00
2012,01,25,07,47,1.80
2012,01,25,07,48,3.10
2012,01,25,07,49,3.00
2012,01,25,07,50,1.50
2012,01,25,07,51,1.80
2012,01,25,07,52,1.60
2012,01,25,07,53,0.00
2012,01,25,07,54,0.50
2012,01,25,07,55,0.70
2012,01,25,07,56,4.10
2012,01,25,07,57,4.20
2012,01,25,07,58,3.50
2012,01,25,07,59,2.30
2012,01,25,08,00,1.40
2012,01,25,08,01,2.50
2012,01,25,08,02,0.80
2012,01,25,08,03,3.80
2012,01,25,08,04,1.90
2012,01,25,08,05,1.90
2012,01,25,08,06,0.30
2012,01,25,08,07,0.00
2012,01,25,08,08,0.00
2012,01,25,08,09,0.00
2012,01,25,08,10,0.00
2012,01,25,08,11,0.00
2012,01,25,08,12,0.00
2012,01,25,08,13,0.00
2012,01,25,08,14,0.50
2012,01,25,08,15,0.10
2012,01,25,08,16,0.00
2012,01,25,08,17,1.70
2012,01,25,08,18,0.40
2012,01,25,08,19,2.70
2012,01,25,08,20,4.30
2012,01,25,08,21,5.20
2012,01,25,08,22,3.10
2012,01,25,08,23,2.20
2012,01,25,08,24,4.90
2012,01,25,08,25,8.10
2012,01,25,08,26,9.40
2012,01,25,08,27,6.80
2012,01,25,08,28,5.80
2012,01,25,08,29,7.00
2012,01,25,08,30,6.40
2012,01,25,08,31,6.70
2012,01,25,08,32,5.30
2012,01,25,08,33,7.20
2012,01,25,08,34,5.70
2012,01,25,08,35,5.00
2012,01,25,08,36,2.80
2012,01,25,08,37,4.90
2012,01,25,08,38,6.20
2012,01,25,08,39,8.50
2012,01,25,08,40,7.80
2012,01,25,08,41,3.30
2012,01,25,08,42,10.50
2012,01,25,08,43,14.80
2012,01,25,08,44,7.60
2012,01,25,08,45,7.10
2012,01,25,08,46,3.30
2012,01,25,08,47,2.80
2012,01,25,08,48,8.70
2012,01,25,08,49,7.20
2012,01,25,08,50,8.70
2012,01,25,08,51,4.80
2012,01,25,08,52,7.00
2012,01,25,08,53,5.90
2012,01,25,08,54,2.70
2012,01,25,08,55,7.20
2012,01,25,08,56,7.50
2012,01,25,08,57,7.10
2012,01,25,08,58,2.20
2012,01,25,08,59,1.40
2012,01,25,09,00,3.60
2012,01,25,09,01,2.70
2012,01,25,09,02,2.20
2012,01,25,09,03,1.10
2012,01,25,09,04,0.00
2012,01,25,09,05,0.00
2012,01,25,09,06,0.00
2012,01,25,09,07,0.00
2012,01,25,09,08,0.00
2012,01,25,09,09,0.00
2012,01,25,09,10,0.00
2012,01,25,09,11,0.00
2012,01,25,09,12,0.00
2012,01,25,09,13,0.00
2012,01,25,09,14,0.90
2012,01,25,09,15,3.10
2012,01,25,09,16,3.80
2012,01,25,09,17,6.40
2012,01,25,09,18,8.10
2012,01,25,09,19,6.70
2012,01,25,09,20,7.40
2012,01,25,09,21,5.60
2012,01,25,09,22,3.60
2012,01,25,09,23,1.90
2012,01,25,09,24,3.90
2012,01,25,09,25,3.90
2012,01,25,09,26,6.00
2012,01,25,09,27,4.70
2012,01,25,09,28,5.00
2012,01,25,09,29,6.60
2012,01,25,09,30,6.10
2012,01,25,09,31,3.60
2012,01,25,09,32,4.90
2012,01,25,09,33,6.60
2012,01,25,09,34,9.00
2012,01,25,09,35,9.20
2012,01,25,09,36,10.20
2012,01,25,09,37,8.10
2012,01,25,09,38,7.30
2012,01,25,09,39,9.70
2012,01,25,09,40,9.20
2012,01,25,09,41,11.20
2012,01,25,09,42,9.90
2012,01,25,09,43,8.90
2012,01,25,09,44,11.30
2012,01,25,09,45,10.30
2012,01,25,09,46,9.90
2012,01,25,09,47,14.00
2012,01,25,09,48,13.80
2012,01,25,09,49,9.30
2012,01,25,09,50,16.30
2012,01,25,09,51,17.80
2012,01,25,09,52,22.30
2012,01,25,09,53,23.10
2012,01,25,09,54,16.60
2012,01,25,09,55,13.00
2012,01,25,09,56,11.30
2012,01,25,09,57,13.70
2012,01,25,09,58,14.70
2012,01,25,09,59,11.30
2012,01,25,10,00,13.70
2012,01,25,10,01,13.20
2012,01,25,10,02,10.80
2012,01,25,10,03,8.20
2012,01,25,10,04,10.70
2012,01,25,10,05,11.90
2012,01,25,10,06,13.00
2012,01,25,10,07,14.20
2012,01,25,10,08,11.70
2012,01,25,10,09,12.50
2012,01,25,10,10,12.30
2012,01,25,10,11,12.60
2012,01,25,10,12,20.90
2012,01,25,10,13,15.70
2012,01,25,10,14,20.40
2012,01,25,10,15,17.60
2012,01,25,10,16,14.50
2012,01,25,10,17,19.30
2012,01,25,10,18,20.20
2012,01,25,10,19,21.70
2012,01,25,10,20,19.00
2012,01,25,10,21,14.30
2012,01,25,10,22,17.50
2012,01,25,10,23,14.40
2012,01,25,10,24,15.80
2012,01,25,10,25,16.10
2012,01,25,10,26,19.80
2012,01,25,10,27,16.70
2012,01,25,10,28,16.50
2012,01,25,10,29,17.10
2012,01,25,10,30,16.70
2012,01,25,10,31,18.30
2012,01,25,10,32,16.00
2012,01,25,10,33,15.40
2012,01,25,10,34,14.00
2012,01,25,10,35,13.70
2012,01,25,10,36,13.10
2012,01,25,10,37,12.90
2012,01,25,10,38,12.40
2012,01,25,10,39,16.70
2012,01,25,10,40,10.10
2012,01,25,10,41,8.60
2012,01,25,10,42,12.70
2012,01,25,10,43,8.70
2012,01,25,10,44,8.10
2012,01,25,10,45,11.70
2012,01,25,10,46,13.20
2012,01,25,10,47,12.90
2012,01,25,10,48,14.80
2012,01,25,10,49,10.90
2012,01,25,10,50,12.40
2012,01,25,10,51,10.70
2012,01,25,10,52,8.50
2012,01,25,10,53,9.20
2012,01,25,10,54,20.00
2012,01,25,10,55,17.30
2012,01,25,10,56,12.40
2012,01,25,10,57,14.60
2012,01,25,10,58,10.50
2012,01,25,10,59,10.10
2012,01,25,11,00,10.50
2012,01,25,11,01,10.20
2012,01,25,11,02,7.20
2012,01,25,11,03,13.30
2012,01,25,11,04,15.00
2012,01,25,11,05,17.70
2012,01,25,11,06,13.80
2012,01,25,11,07,8.10
2012,01,25,11,08,10.50
2012,01,25,11,09,5.90
2012,01,25,11,10,6.80
2012,01,25,11,11,11.10
2012,01,25,11,12,19.80
2012,01,25,11,13,18.70
2012,01,25,11,14,18.00
2012,01,25,11,15,17.60
2012,01,25,11,16,11.80
2012,01,25,11,17,9.00
2012,01,25,11,18,12.50
2012,01,25,11,19,12.60
2012,01,25,11,20,5.80
2012,01,25,11,21,9.20
2012,01,25,11,22,14.70
2012,01,25,11,23,14.20
2012,01,25,11,24,14.20
2012,01,25,11,25,13.20
2012,01,25,11,26,14.10
2012,01,25,11,27,9.20
2012,01,25,11,28,5.50
2012,01,25,11,29,8.90
2012,01,25,11,30,19.10
2012,01,25,11,31,16.30
2012,01,25,11,32,26.00
2012,01,25,11,33,22.50
2012,01,25,11,34,16.70
2012,01,25,11,35,16.30
2012,01,25,11,36,12.70
2012,01,25,11,37,13.80
2012,01,25,11,38,10.00
2012,01,25,11,39,11.00
2012,01,25,11,40,11.70
2012,01,25,11,41,12.80
2012,01,25,11,42,17.50
2012,01,25,11,43,16.30
2012,01,25,11,44,13.40
2012,01,25,11,45,14.50
2012,01,25,11,46,14.70
2012,01,25,11,47,15.50
2012,01,25,11,48,11.40
2012,01,25,11,49,17.10
2012,01,25,11,50,18.70
2012,01,25,11,51,18.30
2012,01,25,11,52,17.30
2012,01,25,11,53,20.80
2012,01,25,11,54,16.40
2012,01,25,11,55,13.30
2012,01,25,11,56,15.00
2012,01,25,11,57,16.10
2012,01,25,11,58,18.30
2012,01,25,11,59,19.60
2012,01,25,12,00,20.90
2012,01,25,12,01,32.20
2012,01,25,12,02,27.50
2012,01,25,12,03,23.30
2012,01,25,12,04,24.90
2012,01,25,12,05,24.10
2012,01,25,12,06,18.60
2012,01,25,12,07,29.70
2012,01,25,12,08,23.30
2012,01,25,12,09,26.60
2012,01,25,12,10,23.30
2012,01,25,12,11,23.30
2012,01,25,12,12,24.00
2012,01,25,12,13,19.40
2012,01,25,12,14,23.60
2012,01,25,12,15,19.80
2012,01,25,12,16,22.30
2012,01,25,12,17,24.20
2012,01,25,12,18,24.90
2012,01,25,12,19,16.50
2012,01,25,12,20,20.10
2012,01,25,12,21,25.40
2012,01,25,12,22,19.90
2012,01,25,12,23,25.20
2012,01,25,12,24,22.70
2012,01,25,12,25,18.70
2012,01,25,12,26,21.20
2012,01,25,12,27,20.90
2012,01,25,12,28,32.70
2012,01,25,12,29,19.00
2012,01,25,12,30,18.30
2012,01,25,12,31,20.40
2012,01,25,12,32,18.70
2012,01,25,12,33,11.80
2012,01,25,12,34,11.80
2012,01,25,12,35,14.90
2012,01,25,12,36,18.00
2012,01,25,12,37,27.20
2012,01,25,12,38,21.30
2012,01,25,12,39,16.40
2012,01,25,12,40,17.40
2012,01,25,12,41,17.30
2012,01,25,12,42,14.30
2012,01,25,12,43,14.90
2012,01,25,12,44,14.30
2012,01,25,12,45,13.70
2012,01,25,12,46,17.10
2012,01,25,12,47,21.20
2012,01,25,12,48,19.50
2012,01,25,12,49,15.60
2012,01,25,12,50,15.50
2012,01,25,12,51,17.50
2012,01,25,12,52,16.50
2012,01,25,12,53,16.70
2012,01,25,12,54,12.60
2012,01,25,12,55,18.00
2012,01,25,12,56,18.00
2012,01,25,12,57,19.60
2012,01,25,12,58,18.00
2012,01,25,12,59,15.80
2012,01,25,13,00,18.60
2012,01,25,13,01,18.80
2012,01,25,13,02,15.50
2012,01,25,13,03,17.10
2012,01,25,13,04,22.50
2012,01,25,13,05,16.20
2012,01,25,13,06,17.00
2012,01,25,13,07,12.20
2012,01,25,13,08,23.20
2012,01,25,13,09,18.30
2012,01,25,13,10,17.50
2012,01,25,13,11,16.50
2012,01,25,13,12,20.10
2012,01,25,13,13,13.80
2012,01,25,13,14,15.40
2012,01,25,13,15,14.20
2012,01,25,13,16,16.90
2012,01,25,13,17,12.40
2012,01,25,13,18,10.10
2012,01,25,13,19,14.70
2012,01,25,13,20,17.90
2012,01,25,13,21,11.90
2012,01,25,13,22,12.10
2012,01,25,13,23,13.90
2012,01,25,13,24,15.10
2012,01,25,13,25,15.30
2012,01,25,13,26,12.50
2012,01,25,13,27,20.20
2012,01,25,13,28,15.50
2012,01,25,13,29,13.50
2012,01,25,13,30,13.40
2012,01,25,13,31,13.00
2012,01,25,13,32,17.80
2012,01,25,13,33,14.60
2012,01,25,13,34,17.20
2012,01,25,13,35,10.60
2012,01,25,13,36,10.50
2012,01,25,13,37,10.80
2012,01,25,13,38,11.20
2012,01,25,13,39,15.10
2012,01,25,13,40,10.90
2012,01,25,13,41,14.70
2012,01,25,13,42,17.10
2012,01,25,13,43,15.20
2012,01,25,13,44,19.20
2012,01,25,13,45,12.10
2012,01,25,13,46,15.80
2012,01,25,13,47,18.00
2012,01,25,13,48,15.90
2012,01,25,13,49,25.00
2012,01,25,13,50,19.60
2012,01,25,13,51,13.90
2012,01,25,13,52,13.20
2012,01,25,13,53,13.40
2012,01,25,13,54,16.50
2012,01,25,13,55,21.50
2012,01,25,13,56,20.20
2012,01,25,13,57,21.00
2012,01,25,13,58,21.40
2012,01,25,13,59,21.60
2012,01,25,14,00,17.00
2012,01,25,14,01,18.50
2012,01,25,14,02,25.70
2012,01,25,14,03,20.40
2012,01,25,14,04,28.60
2012,01,25,14,05,25.90
2012,01,25,14,06,22.00
2012,01,25,14,07,14.00
2012,01,25,14,08,20.50
2012,01,25,14,09,27.30
2012,01,25,14,10,21.90
2012,01,25,14,11,16.40
2012,01,25,14,12,18.70
2012,01,25,14,13,17.90
2012,01,25,14,14,16.80
2012,01,25,14,15,24.60
2012,01,25,14,16,23.50
2012,01,25,14,17,24.80
2012,01,25,14,18,24.40
2012,01,25,14,19,25.80
2012,01,25,14,20,14.50
2012,01,25,14,21,20.00
2012,01,25,14,22,14.50
2012,01,25,14,23,18.80
2012,01,25,14,24,21.60
2012,01,25,14,25,22.50
2012,01,25,14,26,21.50
2012,01,25,14,27,21.30
2012,01,25,14,28,22.00
2012,01,25,14,29,22.60
2012,01,25,14,30,22.50
2012,01,25,14,31,26.90
2012,01,25,14,32,21.90
2012,01,25,14,33,15.30
2012,01,25,14,34,19.00
2012,01,25,14,35,18.90
2012,01,25,14,36,18.70
2012,01,25,14,37,26.80
2012,01,25,14,38,26.10
2012,01,25,14,39,18.80
2012,01,25,14,40,19.90
2012,01,25,14,41,26.20
2012,01,25,14,42,30.10
2012,01,25,14,43,27.80
2012,01,25,14,44,23.40
2012,01,25,14,45,24.90
2012,01,25,14,46,27.80
2012,01,25,14,47,20.70
2012,01,25,14,48,20.70
2012,01,25,14,49,24.30
2012,01,25,14,50,23.00
2012,01,25,14,51,29.60
2012,01,25,14,52,27.80
2012,01,25,14,53,26.70
2012,01,25,14,54,20.20
2012,01,25,14,55,20.00
2012,01,25,14,56,22.30
2012,01,25,14,57,20.80
2012,01,25,14,58,22.60
2012,01,25,14,59,24.40
2012,01,25,15,00,19.20
2012,01,25,15,01,13.30
2012,01,25,15,02,14.90
2012,01,25,15,03,19.60
2012,01,25,15,04,22.60
2012,01,25,15,05,15.90
2012,01,25,15,06,12.80
2012,01,25,15,07,15.50
2012,01,25,15,08,27.40
2012,01,25,15,09,14.20
2012,01,25,15,10,15.70
2012,01,25,15,11,14.30
2012,01,25,15,12,19.60
2012,01,25,15,13,16.80
2012,01,25,15,14,17.80
2012,01,25,15,15,12.50
2012,01,25,15,16,15.80
2012,01,25,15,17,16.80
2012,01,25,15,18,20.00
2012,01,25,15,19,17.40
2012,01,25,15,20,17.20
2012,01,25,15,21,16.80
2012,01,25,15,22,24.80
2012,01,25,15,23,19.60
2012,01,25,15,24,20.10
2012,01,25,15,25,28.10
2012,01,25,15,26,20.60
2012,01,25,15,27,17.60
2012,01,25,15,28,19.60
2012,01,25,15,29,23.10
2012,01,25,15,30,24.50
2012,01,25,15,31,22.90
2012,01,25,15,32,22.50
2012,01,25,15,33,26.40
2012,01,25,15,34,21.80
2012,01,25,15,35,17.70
2012,01,25,15,36,22.70
2012,01,25,15,37,18.00
2012,01,25,15,38,18.30
2012,01,25,15,39,29.40
2012,01,25,15,40,21.90
2012,01,25,15,41,20.60
2012,01,25,15,42,19.80
2012,01,25,15,43,23.50
2012,01,25,15,44,27.60
2012,01,25,15,45,28.40
2012,01,25,15,46,22.20
2012,01,25,15,47,29.30
2012,01,25,15,48,27.40
2012,01,25,15,49,19.90
2012,01,25,15,50,21.80
2012,01,25,15,51,20.90
2012,01,25,15,52,27.80
2012,01,25,15,53,16.30
2012,01,25,15,54,17.90
2012,01,25,15,55,22.00
2012,01,25,15,56,19.60
2012,01,25,15,57,18.20
2012,01,25,15,58,15.90
2012,01,25,15,59,18.70
2012,01,25,16,00,24.50
2012,01,25,16,01,20.90
2012,01,25,16,02,19.50
2012,01,25,16,03,15.30
2012,01,25,16,04,19.20
2012,01,25,16,05,19.10
2012,01,25,16,06,21.40
2012,01,25,16,07,18.30
2012,01,25,16,08,14.80
2012,01,25,16,09,16.40
2012,01,25,16,10,18.30
2012,01,25,16,11,18.00
2012,01,25,16,12,20.80
2012,01,25,16,13,19.10
2012,01,25,16,14,11.30
2012,01,25,16,15,13.80
2012,01,25,16,16,11.10
2012,01,25,16,17,11.60
2012,01,25,16,18,12.40
2012,01,25,16,19,15.80
2012,01,25,16,20,16.10
2012,01,25,16,21,14.70
2012,01,25,16,22,10.00
2012,01,25,16,23,11.30
2012,01,25,16,24,8.30
2012,01,25,16,25,12.70
2012,01,25,16,26,16.30
2012,01,25,16,27,16.70
2012,01,25,16,28,17.10
2012,01,25,16,29,16.50
2012,01,25,16,30,14.40
2012,01,25,16,31,15.10
2012,01,25,16,32,13.80
2012,01,25,16,33,11.40
2012,01,25,16,34,7.70
2012,01,25,16,35,7.60
2012,01,25,16,36,8.90
2012,01,25,16,37,10.90
2012,01,25,16,38,7.90
2012,01,25,16,39,7.70
2012,01,25,16,40,10.90
2012,01,25,16,41,12.90
2012,01,25,16,42,10.10
2012,01,25,16,43,7.10
2012,01,25,16,44,4.80
2012,01,25,16,45,4.10
2012,01,25,16,46,8.90
2012,01,25,16,47,7.70
2012,01,25,16,48,8.10
2012,01,25,16,49,6.80
2012,01,25,16,50,6.30
2012,01,25,16,51,3.90
2012,01,25,16,52,6.70
2012,01,25,16,53,6.00
2012,01,25,16,54,10.10
2012,01,25,16,55,6.50
2012,01,25,16,56,3.50
2012,01,25,16,57,6.80
2012,01,25,16,58,6.70
2012,01,25,16,59,6.40
2012,01,25,17,00,6.50
2012,01,25,17,01,6.10
2012,01,25,17,02,7.00
2012,01,25,17,03,3.90
2012,01,25,17,04,4.60
2012,01,25,17,05,2.90
2012,01,25,17,06,2.00
2012,01,25,17,07,2.70
2012,01,25,17,08,2.20
2012,01,25,17,09,3.00
2012,01,25,17,10,1.90
2012,01,25,17,11,1.20
2012,01,25,17,12,0.50
2012,01,25,17,13,1.80
2012,01,25,17,14,0.00
2012,01,25,17,15,0.60
2012,01,25,17,16,0.80
2012,01,25,17,17,5.10
2012,01,25,17,18,2.70
2012,01,25,17,19,4.10
2012,01,25,17,20,3.90
2012,01,25,17,21,2.80
2012,01,25,17,22,0.40
2012,01,25,17,23,3.30
2012,01,25,17,24,1.40
2012,01,25,17,25,3.30
2012,01,25,17,26,1.90
2012,01,25,17,27,0.50
2012,01,25,17,28,1.50
2012,01,25,17,29,0.00
2012,01,25,17,30,0.00
2012,01,25,17,31,0.00
2012,01,25,17,32,0.00
2012,01,25,17,33,0.00
2012,01,25,17,34,1.40
2012,01,25,17,35,0.20
2012,01,25,17,36,0.00
2012,01,25,17,37,0.00
2012,01,25,17,38,0.00